Location: Asheville, NC
(35.6000°N, 82.5500°W)
Time: 21:13:43
(UTC-05:00)

SO-50 - Pass Details

Date: 06 January 2018
Orbit: 610 x 677 km, 64.6° (Epoch: 20 January)

Event Time Altitude Azimuth Distance (km) Brightness Sun altitude
Rises 20:18:32 0° 304° (WNW) 2,987 ? -33.1°
Reaches altitude 10° 20:22:39 10° 269° (W) 2,084 ? -33.9°
Maximum altitude 20:23:54 11° 253° (WSW) 2,020 ? -34.2°
Drops below altitude 10° 20:25:10 10° 238° (WSW) 2,088 ? -34.4°
Sets 20:29:19 0° 202° (SSW) 3,005 ? -35.3°
